Year,Month,Day,Hour,Minute,Value (Times are PST for insolation in W/m^2)
2020,06,18,00,00,0.00
2020,06,18,00,01,0.00
2020,06,18,00,02,0.00
2020,06,18,00,03,0.00
2020,06,18,00,04,0.00
2020,06,18,00,05,0.00
2020,06,18,00,06,0.00
2020,06,18,00,07,0.00
2020,06,18,00,08,0.00
2020,06,18,00,09,0.00
2020,06,18,00,10,0.00
2020,06,18,00,11,0.00
2020,06,18,00,12,0.00
2020,06,18,00,13,0.00
2020,06,18,00,14,0.00
2020,06,18,00,15,0.00
2020,06,18,00,16,0.00
2020,06,18,00,17,0.00
2020,06,18,00,18,0.00
2020,06,18,00,19,0.00
2020,06,18,00,20,0.00
2020,06,18,00,21,0.00
2020,06,18,00,22,0.00
2020,06,18,00,23,0.00
2020,06,18,00,24,0.00
2020,06,18,00,25,0.00
2020,06,18,00,26,0.00
2020,06,18,00,27,0.00
2020,06,18,00,28,0.00
2020,06,18,00,29,0.00
2020,06,18,00,30,0.00
2020,06,18,00,31,0.00
2020,06,18,00,32,0.00
2020,06,18,00,33,0.00
2020,06,18,00,34,0.00
2020,06,18,00,35,0.00
2020,06,18,00,36,0.00
2020,06,18,00,37,0.00
2020,06,18,00,38,0.00
2020,06,18,00,39,0.00
2020,06,18,00,40,0.00
2020,06,18,00,41,0.00
2020,06,18,00,42,0.00
2020,06,18,00,43,0.00
2020,06,18,00,44,0.00
2020,06,18,00,45,0.00
2020,06,18,00,46,0.00
2020,06,18,00,47,0.00
2020,06,18,00,48,0.00
2020,06,18,00,49,0.00
2020,06,18,00,50,0.00
2020,06,18,00,51,0.00
2020,06,18,00,52,0.00
2020,06,18,00,53,0.00
2020,06,18,00,54,0.00
2020,06,18,00,55,0.00
2020,06,18,00,56,0.00
2020,06,18,00,57,0.00
2020,06,18,00,58,0.00
2020,06,18,00,59,0.00
2020,06,18,01,00,0.00
2020,06,18,01,01,0.00
2020,06,18,01,02,0.00
2020,06,18,01,03,0.00
2020,06,18,01,04,0.00
2020,06,18,01,05,0.00
2020,06,18,01,06,0.00
2020,06,18,01,07,0.00
2020,06,18,01,08,0.00
2020,06,18,01,09,0.00
2020,06,18,01,10,0.00
2020,06,18,01,11,0.00
2020,06,18,01,12,0.00
2020,06,18,01,13,0.00
2020,06,18,01,14,0.00
2020,06,18,01,15,0.00
2020,06,18,01,16,0.00
2020,06,18,01,17,0.00
2020,06,18,01,18,0.00
2020,06,18,01,19,0.00
2020,06,18,01,20,0.00
2020,06,18,01,21,0.00
2020,06,18,01,22,0.00
2020,06,18,01,23,0.00
2020,06,18,01,24,0.00
2020,06,18,01,25,0.00
2020,06,18,01,26,0.00
2020,06,18,01,27,0.00
2020,06,18,01,28,0.00
2020,06,18,01,29,0.00
2020,06,18,01,30,0.00
2020,06,18,01,31,0.00
2020,06,18,01,32,0.00
2020,06,18,01,33,0.00
2020,06,18,01,34,0.00
2020,06,18,01,35,0.00
2020,06,18,01,36,0.00
2020,06,18,01,37,0.00
2020,06,18,01,38,0.00
2020,06,18,01,39,0.00
2020,06,18,01,40,0.00
2020,06,18,01,41,0.00
2020,06,18,01,42,0.00
2020,06,18,01,43,0.00
2020,06,18,01,44,0.00
2020,06,18,01,45,0.00
2020,06,18,01,46,0.00
2020,06,18,01,47,0.00
2020,06,18,01,48,0.00
2020,06,18,01,49,0.00
2020,06,18,01,50,0.00
2020,06,18,01,51,0.00
2020,06,18,01,52,0.00
2020,06,18,01,53,0.00
2020,06,18,01,54,0.00
2020,06,18,01,55,0.00
2020,06,18,01,56,0.00
2020,06,18,01,57,0.00
2020,06,18,01,58,0.00
2020,06,18,01,59,0.00
2020,06,18,02,00,0.00
2020,06,18,02,01,0.00
2020,06,18,02,02,0.00
2020,06,18,02,03,0.00
2020,06,18,02,04,0.00
2020,06,18,02,05,0.00
2020,06,18,02,06,0.00
2020,06,18,02,07,0.00
2020,06,18,02,08,0.00
2020,06,18,02,09,0.00
2020,06,18,02,10,0.00
2020,06,18,02,11,0.00
2020,06,18,02,12,0.00
2020,06,18,02,13,0.00
2020,06,18,02,14,0.00
2020,06,18,02,15,0.00
2020,06,18,02,16,0.00
2020,06,18,02,17,0.00
2020,06,18,02,18,0.00
2020,06,18,02,19,0.00
2020,06,18,02,20,0.00
2020,06,18,02,21,0.00
2020,06,18,02,22,0.00
2020,06,18,02,23,0.00
2020,06,18,02,24,0.00
2020,06,18,02,25,0.00
2020,06,18,02,26,0.00
2020,06,18,02,27,0.00
2020,06,18,02,28,0.00
2020,06,18,02,29,0.00
2020,06,18,02,30,0.00
2020,06,18,02,31,0.00
2020,06,18,02,32,0.00
2020,06,18,02,33,0.00
2020,06,18,02,34,0.00
2020,06,18,02,35,0.00
2020,06,18,02,36,0.00
2020,06,18,02,37,0.00
2020,06,18,02,38,0.00
2020,06,18,02,39,0.00
2020,06,18,02,40,0.00
2020,06,18,02,41,0.00
2020,06,18,02,42,0.00
2020,06,18,02,43,0.00
2020,06,18,02,44,0.00
2020,06,18,02,45,0.00
2020,06,18,02,46,0.00
2020,06,18,02,47,0.00
2020,06,18,02,48,0.00
2020,06,18,02,49,0.00
2020,06,18,02,50,0.00
2020,06,18,02,51,0.00
2020,06,18,02,52,0.00
2020,06,18,02,53,0.00
2020,06,18,02,54,0.00
2020,06,18,02,55,0.00
2020,06,18,02,56,0.00
2020,06,18,02,57,0.00
2020,06,18,02,58,0.00
2020,06,18,02,59,0.00
2020,06,18,03,00,0.00
2020,06,18,03,01,0.00
2020,06,18,03,02,0.00
2020,06,18,03,03,0.00
2020,06,18,03,04,0.00
2020,06,18,03,05,0.00
2020,06,18,03,06,0.00
2020,06,18,03,07,0.00
2020,06,18,03,08,0.00
2020,06,18,03,09,0.00
2020,06,18,03,10,0.00
2020,06,18,03,11,0.00
2020,06,18,03,12,0.00
2020,06,18,03,13,0.00
2020,06,18,03,14,0.00
2020,06,18,03,15,0.00
2020,06,18,03,16,0.00
2020,06,18,03,17,0.00
2020,06,18,03,18,0.00
2020,06,18,03,19,0.00
2020,06,18,03,20,0.00
2020,06,18,03,21,0.00
2020,06,18,03,22,0.00
2020,06,18,03,23,0.00
2020,06,18,03,24,0.00
2020,06,18,03,25,0.00
2020,06,18,03,26,0.00
2020,06,18,03,27,0.00
2020,06,18,03,28,0.00
2020,06,18,03,29,0.00
2020,06,18,03,30,0.00
2020,06,18,03,31,0.00
2020,06,18,03,32,0.00
2020,06,18,03,33,0.00
2020,06,18,03,34,0.00
2020,06,18,03,35,0.00
2020,06,18,03,36,0.00
2020,06,18,03,37,0.00
2020,06,18,03,38,0.00
2020,06,18,03,39,0.00
2020,06,18,03,40,0.00
2020,06,18,03,41,0.00
2020,06,18,03,42,0.00
2020,06,18,03,43,0.00
2020,06,18,03,44,0.00
2020,06,18,03,45,0.00
2020,06,18,03,46,0.00
2020,06,18,03,47,0.00
2020,06,18,03,48,0.00
2020,06,18,03,49,0.00
2020,06,18,03,50,0.00
2020,06,18,03,51,0.00
2020,06,18,03,52,0.00
2020,06,18,03,53,0.00
2020,06,18,03,54,0.00
2020,06,18,03,55,0.00
2020,06,18,03,56,0.00
2020,06,18,03,57,0.00
2020,06,18,03,58,0.00
2020,06,18,03,59,0.00
2020,06,18,04,00,0.00
2020,06,18,04,01,0.00
2020,06,18,04,02,0.00
2020,06,18,04,03,0.00
2020,06,18,04,04,0.00
2020,06,18,04,05,0.00
2020,06,18,04,06,0.00
2020,06,18,04,07,0.00
2020,06,18,04,08,0.00
2020,06,18,04,09,0.00
2020,06,18,04,10,0.00
2020,06,18,04,11,0.00
2020,06,18,04,12,0.00
2020,06,18,04,13,0.00
2020,06,18,04,14,0.00
2020,06,18,04,15,0.00
2020,06,18,04,16,0.00
2020,06,18,04,17,0.00
2020,06,18,04,18,0.00
2020,06,18,04,19,0.00
2020,06,18,04,20,0.00
2020,06,18,04,21,0.00
2020,06,18,04,22,0.00
2020,06,18,04,23,0.00
2020,06,18,04,24,0.00
2020,06,18,04,25,0.00
2020,06,18,04,26,0.00
2020,06,18,04,27,0.00
2020,06,18,04,28,0.00
2020,06,18,04,29,0.00
2020,06,18,04,30,0.00
2020,06,18,04,31,0.00
2020,06,18,04,32,0.00
2020,06,18,04,33,0.00
2020,06,18,04,34,0.00
2020,06,18,04,35,0.00
2020,06,18,04,36,0.00
2020,06,18,04,37,0.00
2020,06,18,04,38,0.00
2020,06,18,04,39,0.00
2020,06,18,04,40,0.00
2020,06,18,04,41,0.00
2020,06,18,04,42,0.00
2020,06,18,04,43,0.00
2020,06,18,04,44,0.00
2020,06,18,04,45,0.00
2020,06,18,04,46,0.00
2020,06,18,04,47,0.00
2020,06,18,04,48,0.00
2020,06,18,04,49,0.00
2020,06,18,04,50,0.00
2020,06,18,04,51,0.00
2020,06,18,04,52,0.00
2020,06,18,04,53,0.00
2020,06,18,04,54,0.00
2020,06,18,04,55,0.00
2020,06,18,04,56,0.00
2020,06,18,04,57,0.00
2020,06,18,04,58,0.00
2020,06,18,04,59,0.00
2020,06,18,05,00,0.00
2020,06,18,05,01,0.00
2020,06,18,05,02,0.00
2020,06,18,05,03,0.00
2020,06,18,05,04,0.00
2020,06,18,05,05,0.00
2020,06,18,05,06,0.00
2020,06,18,05,07,0.00
2020,06,18,05,08,0.00
2020,06,18,05,09,0.00
2020,06,18,05,10,0.00
2020,06,18,05,11,0.00
2020,06,18,05,12,0.00
2020,06,18,05,13,1.80
2020,06,18,05,14,5.00
2020,06,18,05,15,5.00
2020,06,18,05,16,5.00
2020,06,18,05,17,5.00
2020,06,18,05,18,5.60
2020,06,18,05,19,7.00
2020,06,18,05,20,7.00
2020,06,18,05,21,7.00
2020,06,18,05,22,7.00
2020,06,18,05,23,9.00
2020,06,18,05,24,9.00
2020,06,18,05,25,9.00
2020,06,18,05,26,10.10
2020,06,18,05,27,11.00
2020,06,18,05,28,11.00
2020,06,18,05,29,11.20
2020,06,18,05,30,12.00
2020,06,18,05,31,12.00
2020,06,18,05,32,12.00
2020,06,18,05,33,13.50
2020,06,18,05,34,14.00
2020,06,18,05,35,14.00
2020,06,18,05,36,14.00
2020,06,18,05,37,14.90
2020,06,18,05,38,16.00
2020,06,18,05,39,16.00
2020,06,18,05,40,16.20
2020,06,18,05,41,18.00
2020,06,18,05,42,18.00
2020,06,18,05,43,18.00
2020,06,18,05,44,18.00
2020,06,18,05,45,18.80
2020,06,18,05,46,19.00
2020,06,18,05,47,19.00
2020,06,18,05,48,19.00
2020,06,18,05,49,19.00
2020,06,18,05,50,19.00
2020,06,18,05,51,20.70
2020,06,18,05,52,21.00
2020,06,18,05,53,21.00
2020,06,18,05,54,21.00
2020,06,18,05,55,21.00
2020,06,18,05,56,21.00
2020,06,18,05,57,21.00
2020,06,18,05,58,23.00
2020,06,18,05,59,23.00
2020,06,18,06,00,23.00
2020,06,18,06,01,23.00
2020,06,18,06,02,23.00
2020,06,18,06,03,24.70
2020,06,18,06,04,25.00
2020,06,18,06,05,25.00
2020,06,18,06,06,25.00
2020,06,18,06,07,25.00
2020,06,18,06,08,25.00
2020,06,18,06,09,25.00
2020,06,18,06,10,25.10
2020,06,18,06,11,26.00
2020,06,18,06,12,26.00
2020,06,18,06,13,26.00
2020,06,18,06,14,26.00
2020,06,18,06,15,26.00
2020,06,18,06,16,26.00
2020,06,18,06,17,26.00
2020,06,18,06,18,26.00
2020,06,18,06,19,27.20
2020,06,18,06,20,28.00
2020,06,18,06,21,31.60
2020,06,18,06,22,33.00
2020,06,18,06,23,33.00
2020,06,18,06,24,38.20
2020,06,18,06,25,52.40
2020,06,18,06,26,62.00
2020,06,18,06,27,63.30
2020,06,18,06,28,72.80
2020,06,18,06,29,86.60
2020,06,18,06,30,91.00
2020,06,18,06,31,94.90
2020,06,18,06,32,105.00
2020,06,18,06,33,113.00
2020,06,18,06,34,116.50
2020,06,18,06,35,118.80
2020,06,18,06,36,120.50
2020,06,18,06,37,123.80
2020,06,18,06,38,125.00
2020,06,18,06,39,128.40
2020,06,18,06,40,132.80
2020,06,18,06,41,135.80
2020,06,18,06,42,139.30
2020,06,18,06,43,143.10
2020,06,18,06,44,145.70
2020,06,18,06,45,144.00
2020,06,18,06,46,145.30
2020,06,18,06,47,150.80
2020,06,18,06,48,154.80
2020,06,18,06,49,157.50
2020,06,18,06,50,159.70
2020,06,18,06,51,159.70
2020,06,18,06,52,158.60
2020,06,18,06,53,162.90
2020,06,18,06,54,169.20
2020,06,18,06,55,174.80
2020,06,18,06,56,180.50
2020,06,18,06,57,183.40
2020,06,18,06,58,186.60
2020,06,18,06,59,188.90
2020,06,18,07,00,190.00
2020,06,18,07,01,190.00
2020,06,18,07,02,196.50
2020,06,18,07,03,202.30
2020,06,18,07,04,204.90
2020,06,18,07,05,210.00
2020,06,18,07,06,214.90
2020,06,18,07,07,219.00
2020,06,18,07,08,224.90
2020,06,18,07,09,229.80
2020,06,18,07,10,232.70
2020,06,18,07,11,235.10
2020,06,18,07,12,236.00
2020,06,18,07,13,240.00
2020,06,18,07,14,245.90
2020,06,18,07,15,248.80
2020,06,18,07,16,251.70
2020,06,18,07,17,255.20
2020,06,18,07,18,259.10
2020,06,18,07,19,261.60
2020,06,18,07,20,264.00
2020,06,18,07,21,266.00
2020,06,18,07,22,269.80
2020,06,18,07,23,271.50
2020,06,18,07,24,273.30
2020,06,18,07,25,272.40
2020,06,18,07,26,273.70
2020,06,18,07,27,271.20
2020,06,18,07,28,267.00
2020,06,18,07,29,264.00
2020,06,18,07,30,261.10
2020,06,18,07,31,255.80
2020,06,18,07,32,251.90
2020,06,18,07,33,239.90
2020,06,18,07,34,227.70
2020,06,18,07,35,232.80
2020,06,18,07,36,230.60
2020,06,18,07,37,228.60
2020,06,18,07,38,214.40
2020,06,18,07,39,192.90
2020,06,18,07,40,188.00
2020,06,18,07,41,189.20
2020,06,18,07,42,206.80
2020,06,18,07,43,218.00
2020,06,18,07,44,229.40
2020,06,18,07,45,238.70
2020,06,18,07,46,279.00
2020,06,18,07,47,300.00
2020,06,18,07,48,307.20
2020,06,18,07,49,306.30
2020,06,18,07,50,309.40
2020,06,18,07,51,310.50
2020,06,18,07,52,308.80
2020,06,18,07,53,315.60
2020,06,18,07,54,315.20
2020,06,18,07,55,316.10
2020,06,18,07,56,318.00
2020,06,18,07,57,318.70
2020,06,18,07,58,328.40
2020,06,18,07,59,334.70
2020,06,18,08,00,346.80
2020,06,18,08,01,352.90
2020,06,18,08,02,353.50
2020,06,18,08,03,355.80
2020,06,18,08,04,358.60
2020,06,18,08,05,361.40
2020,06,18,08,06,362.00
2020,06,18,08,07,360.40
2020,06,18,08,08,364.90
2020,06,18,08,09,367.80
2020,06,18,08,10,370.20
2020,06,18,08,11,372.40
2020,06,18,08,12,373.80
2020,06,18,08,13,377.80
2020,06,18,08,14,376.80
2020,06,18,08,15,375.80
2020,06,18,08,16,382.10
2020,06,18,08,17,390.20
2020,06,18,08,18,395.60
2020,06,18,08,19,399.00
2020,06,18,08,20,399.60
2020,06,18,08,21,398.80
2020,06,18,08,22,392.50
2020,06,18,08,23,390.00
2020,06,18,08,24,391.60
2020,06,18,08,25,388.00
2020,06,18,08,26,387.00
2020,06,18,08,27,385.00
2020,06,18,08,28,383.70
2020,06,18,08,29,383.00
2020,06,18,08,30,396.80
2020,06,18,08,31,408.60
2020,06,18,08,32,414.50
2020,06,18,08,33,425.50
2020,06,18,08,34,424.50
2020,06,18,08,35,416.50
2020,06,18,08,36,426.00
2020,06,18,08,37,429.00
2020,06,18,08,38,428.30
2020,06,18,08,39,425.40
2020,06,18,08,40,430.50
2020,06,18,08,41,435.60
2020,06,18,08,42,440.60
2020,06,18,08,43,439.50
2020,06,18,08,44,440.20
2020,06,18,08,45,441.20
2020,06,18,08,46,445.00
2020,06,18,08,47,449.20
2020,06,18,08,48,446.00
2020,06,18,08,49,452.80
2020,06,18,08,50,457.50
2020,06,18,08,51,465.40
2020,06,18,08,52,473.20
2020,06,18,08,53,479.20
2020,06,18,08,54,485.20
2020,06,18,08,55,487.90
2020,06,18,08,56,491.80
2020,06,18,08,57,495.80
2020,06,18,08,58,497.00
2020,06,18,08,59,500.40
2020,06,18,09,00,497.40
2020,06,18,09,01,498.10
2020,06,18,09,02,495.10
2020,06,18,09,03,500.00
2020,06,18,09,04,504.00
2020,06,18,09,05,509.50
2020,06,18,09,06,512.50
2020,06,18,09,07,516.40
2020,06,18,09,08,519.50
2020,06,18,09,09,521.20
2020,06,18,09,10,525.20
2020,06,18,09,11,528.70
2020,06,18,09,12,529.80
2020,06,18,09,13,533.30
2020,06,18,09,14,535.00
2020,06,18,09,15,538.60
2020,06,18,09,16,540.00
2020,06,18,09,17,542.90
2020,06,18,09,18,545.50
2020,06,18,09,19,547.40
2020,06,18,09,20,550.00
2020,06,18,09,21,553.30
2020,06,18,09,22,554.80
2020,06,18,09,23,559.20
2020,06,18,09,24,563.00
2020,06,18,09,25,564.20
2020,06,18,09,26,566.00
2020,06,18,09,27,567.40
2020,06,18,09,28,570.40
2020,06,18,09,29,573.20
2020,06,18,09,30,575.80
2020,06,18,09,31,578.00
2020,06,18,09,32,579.10
2020,06,18,09,33,581.50
2020,06,18,09,34,583.70
2020,06,18,09,35,589.00
2020,06,18,09,36,589.60
2020,06,18,09,37,591.40
2020,06,18,09,38,594.20
2020,06,18,09,39,597.40
2020,06,18,09,40,598.80
2020,06,18,09,41,601.30
2020,06,18,09,42,603.90
2020,06,18,09,43,606.90
2020,06,18,09,44,609.20
2020,06,18,09,45,611.50
2020,06,18,09,46,613.00
2020,06,18,09,47,615.30
2020,06,18,09,48,618.20
2020,06,18,09,49,621.50
2020,06,18,09,50,623.30
2020,06,18,09,51,627.00
2020,06,18,09,52,628.20
2020,06,18,09,53,632.40
2020,06,18,09,54,637.30
2020,06,18,09,55,627.00
2020,06,18,09,56,631.20
2020,06,18,09,57,638.40
2020,06,18,09,58,644.10
2020,06,18,09,59,643.50
2020,06,18,10,00,645.70
2020,06,18,10,01,648.00
2020,06,18,10,02,651.00
2020,06,18,10,03,653.60
2020,06,18,10,04,656.00
2020,06,18,10,05,657.50
2020,06,18,10,06,659.70
2020,06,18,10,07,662.50
2020,06,18,10,08,665.30
2020,06,18,10,09,667.70
2020,06,18,10,10,670.30
2020,06,18,10,11,673.50
2020,06,18,10,12,676.70
2020,06,18,10,13,679.00
2020,06,18,10,14,681.10
2020,06,18,10,15,682.00
2020,06,18,10,16,686.10
2020,06,18,10,17,687.50
2020,06,18,10,18,689.90
2020,06,18,10,19,692.20
2020,06,18,10,20,693.80
2020,06,18,10,21,699.10
2020,06,18,10,22,698.30
2020,06,18,10,23,700.30
2020,06,18,10,24,701.00
2020,06,18,10,25,704.60
2020,06,18,10,26,707.70
2020,06,18,10,27,709.90
2020,06,18,10,28,714.20
2020,06,18,10,29,715.60
2020,06,18,10,30,717.00
2020,06,18,10,31,717.00
2020,06,18,10,32,720.00
2020,06,18,10,33,721.10
2020,06,18,10,34,722.40
2020,06,18,10,35,724.70
2020,06,18,10,36,727.00
2020,06,18,10,37,728.70
2020,06,18,10,38,729.00
2020,06,18,10,39,637.70
2020,06,18,10,40,669.00
2020,06,18,10,41,714.70
2020,06,18,10,42,741.00
2020,06,18,10,43,744.00
2020,06,18,10,44,736.60
2020,06,18,10,45,735.20
2020,06,18,10,46,737.20
2020,06,18,10,47,738.70
2020,06,18,10,48,740.00
2020,06,18,10,49,600.70
2020,06,18,10,50,541.00
2020,06,18,10,51,744.00
2020,06,18,10,52,747.80
2020,06,18,10,53,736.40
2020,06,18,10,54,763.00
2020,06,18,10,55,764.40
2020,06,18,10,56,765.80
2020,06,18,10,57,772.00
2020,06,18,10,58,772.80
2020,06,18,10,59,775.00
2020,06,18,11,00,773.80
2020,06,18,11,01,777.40
2020,06,18,11,02,779.80
2020,06,18,11,03,782.60
2020,06,18,11,04,786.60
2020,06,18,11,05,789.30
2020,06,18,11,06,791.00
2020,06,18,11,07,794.00
2020,06,18,11,08,796.00
2020,06,18,11,09,798.00
2020,06,18,11,10,800.50
2020,06,18,11,11,793.50
2020,06,18,11,12,799.10
2020,06,18,11,13,811.20
2020,06,18,11,14,816.80
2020,06,18,11,15,824.00
2020,06,18,11,16,824.00
2020,06,18,11,17,811.00
2020,06,18,11,18,743.00
2020,06,18,11,19,726.20
2020,06,18,11,20,683.70
2020,06,18,11,21,675.80
2020,06,18,11,22,699.40
2020,06,18,11,23,676.50
2020,06,18,11,24,701.70
2020,06,18,11,25,718.00
2020,06,18,11,26,736.80
2020,06,18,11,27,744.20
2020,06,18,11,28,773.20
2020,06,18,11,29,797.70
2020,06,18,11,30,791.80
2020,06,18,11,31,798.80
2020,06,18,11,32,791.00
2020,06,18,11,33,799.80
2020,06,18,11,34,800.00
2020,06,18,11,35,821.90
2020,06,18,11,36,838.40
2020,06,18,11,37,846.20
2020,06,18,11,38,849.60
2020,06,18,11,39,851.90
2020,06,18,11,40,849.90
2020,06,18,11,41,852.20
2020,06,18,11,42,850.10
2020,06,18,11,43,853.20
2020,06,18,11,44,856.30
2020,06,18,11,45,858.50
2020,06,18,11,46,861.30
2020,06,18,11,47,845.00
2020,06,18,11,48,855.50
2020,06,18,11,49,864.80
2020,06,18,11,50,853.30
2020,06,18,11,51,835.00
2020,06,18,11,52,828.00
2020,06,18,11,53,811.20
2020,06,18,11,54,781.80
2020,06,18,11,55,750.10
2020,06,18,11,56,711.60
2020,06,18,11,57,685.80
2020,06,18,11,58,642.00
2020,06,18,11,59,603.90
2020,06,18,12,00,559.50
2020,06,18,12,01,517.50
2020,06,18,12,02,494.60
2020,06,18,12,03,482.00
2020,06,18,12,04,466.50
2020,06,18,12,05,467.20
2020,06,18,12,06,477.80
2020,06,18,12,07,492.50
2020,06,18,12,08,509.00
2020,06,18,12,09,540.60
2020,06,18,12,10,564.70
2020,06,18,12,11,594.00
2020,06,18,12,12,633.60
2020,06,18,12,13,681.40
2020,06,18,12,14,728.50
2020,06,18,12,15,763.40
2020,06,18,12,16,800.40
2020,06,18,12,17,826.10
2020,06,18,12,18,848.60
2020,06,18,12,19,866.50
2020,06,18,12,20,877.40
2020,06,18,12,21,885.60
2020,06,18,12,22,889.80
2020,06,18,12,23,893.90
2020,06,18,12,24,895.00
2020,06,18,12,25,893.50
2020,06,18,12,26,895.70
2020,06,18,12,27,896.30
2020,06,18,12,28,896.80
2020,06,18,12,29,898.80
2020,06,18,12,30,902.00
2020,06,18,12,31,909.00
2020,06,18,12,32,909.60
2020,06,18,12,33,911.50
2020,06,18,12,34,913.30
2020,06,18,12,35,914.00
2020,06,18,12,36,918.20
2020,06,18,12,37,911.80
2020,06,18,12,38,906.50
2020,06,18,12,39,898.00
2020,06,18,12,40,893.80
2020,06,18,12,41,891.00
2020,06,18,12,42,891.00
2020,06,18,12,43,891.00
2020,06,18,12,44,891.00
2020,06,18,12,45,894.50
2020,06,18,12,46,896.70
2020,06,18,12,47,888.00
2020,06,18,12,48,884.50
2020,06,18,12,49,895.00
2020,06,18,12,50,907.00
2020,06,18,12,51,912.80
2020,06,18,12,52,921.20
2020,06,18,12,53,928.60
2020,06,18,12,54,925.20
2020,06,18,12,55,924.50
2020,06,18,12,56,922.20
2020,06,18,12,57,923.20
2020,06,18,12,58,925.00
2020,06,18,12,59,925.00
2020,06,18,13,00,919.00
2020,06,18,13,01,919.60
2020,06,18,13,02,924.80
2020,06,18,13,03,926.20
2020,06,18,13,04,921.60
2020,06,18,13,05,901.50
2020,06,18,13,06,882.10
2020,06,18,13,07,856.50
2020,06,18,13,08,828.50
2020,06,18,13,09,820.90
2020,06,18,13,10,843.00
2020,06,18,13,11,842.70
2020,06,18,13,12,853.60
2020,06,18,13,13,836.40
2020,06,18,13,14,819.00
2020,06,18,13,15,812.00
2020,06,18,13,16,826.80
2020,06,18,13,17,841.20
2020,06,18,13,18,848.20
2020,06,18,13,19,850.20
2020,06,18,13,20,848.50
2020,06,18,13,21,849.80
2020,06,18,13,22,835.00
2020,06,18,13,23,823.50
2020,06,18,13,24,804.80
2020,06,18,13,25,795.70
2020,06,18,13,26,798.30
2020,06,18,13,27,806.20
2020,06,18,13,28,805.80
2020,06,18,13,29,811.40
2020,06,18,13,30,843.00
2020,06,18,13,31,845.20
2020,06,18,13,32,839.90
2020,06,18,13,33,845.20
2020,06,18,13,34,863.40
2020,06,18,13,35,877.90
2020,06,18,13,36,890.50
2020,06,18,13,37,887.20
2020,06,18,13,38,882.50
2020,06,18,13,39,881.00
2020,06,18,13,40,881.00
2020,06,18,13,41,915.80
2020,06,18,13,42,914.50
2020,06,18,13,43,918.20
2020,06,18,13,44,915.20
2020,06,18,13,45,907.00
2020,06,18,13,46,902.50
2020,06,18,13,47,904.20
2020,06,18,13,48,904.10
2020,06,18,13,49,904.90
2020,06,18,13,50,910.70
2020,06,18,13,51,908.50
2020,06,18,13,52,893.20
2020,06,18,13,53,886.50
2020,06,18,13,54,890.80
2020,06,18,13,55,896.30
2020,06,18,13,56,896.70
2020,06,18,13,57,897.40
2020,06,18,13,58,899.60
2020,06,18,13,59,896.00
2020,06,18,14,00,895.00
2020,06,18,14,01,893.00
2020,06,18,14,02,893.00
2020,06,18,14,03,889.10
2020,06,18,14,04,886.00
2020,06,18,14,05,880.40
2020,06,18,14,06,874.00
2020,06,18,14,07,873.10
2020,06,18,14,08,872.00
2020,06,18,14,09,872.00
2020,06,18,14,10,873.90
2020,06,18,14,11,875.10
2020,06,18,14,12,878.20
2020,06,18,14,13,875.30
2020,06,18,14,14,876.10
2020,06,18,14,15,871.40
2020,06,18,14,16,868.30
2020,06,18,14,17,873.20
2020,06,18,14,18,882.00
2020,06,18,14,19,878.30
2020,06,18,14,20,871.80
2020,06,18,14,21,861.50
2020,06,18,14,22,847.80
2020,06,18,14,23,843.40
2020,06,18,14,24,854.00
2020,06,18,14,25,856.20
2020,06,18,14,26,864.90
2020,06,18,14,27,867.80
2020,06,18,14,28,848.90
2020,06,18,14,29,839.60
2020,06,18,14,30,849.40
2020,06,18,14,31,855.80
2020,06,18,14,32,870.50
2020,06,18,14,33,868.20
2020,06,18,14,34,888.50
2020,06,18,14,35,893.10
2020,06,18,14,36,895.60
2020,06,18,14,37,894.80
2020,06,18,14,38,897.50
2020,06,18,14,39,901.80
2020,06,18,14,40,904.50
2020,06,18,14,41,894.90
2020,06,18,14,42,890.50
2020,06,18,14,43,880.20
2020,06,18,14,44,873.00
2020,06,18,14,45,872.50
2020,06,18,14,46,894.20
2020,06,18,14,47,891.00
2020,06,18,14,48,891.00
2020,06,18,14,49,891.00
2020,06,18,14,50,891.00
2020,06,18,14,51,847.10
2020,06,18,14,52,792.00
2020,06,18,14,53,724.90
2020,06,18,14,54,742.30
2020,06,18,14,55,725.00
2020,06,18,14,56,715.00
2020,06,18,14,57,740.00
2020,06,18,14,58,790.80
2020,06,18,14,59,832.00
2020,06,18,15,00,840.70
2020,06,18,15,01,833.20
2020,06,18,15,02,826.80
2020,06,18,15,03,826.90
2020,06,18,15,04,836.20
2020,06,18,15,05,838.80
2020,06,18,15,06,819.10
2020,06,18,15,07,757.50
2020,06,18,15,08,732.00
2020,06,18,15,09,763.50
2020,06,18,15,10,794.50
2020,06,18,15,11,804.30
2020,06,18,15,12,813.20
2020,06,18,15,13,794.40
2020,06,18,15,14,792.00
2020,06,18,15,15,811.20
2020,06,18,15,16,807.90
2020,06,18,15,17,809.50
2020,06,18,15,18,815.00
2020,06,18,15,19,817.50
2020,06,18,15,20,818.00
2020,06,18,15,21,838.90
2020,06,18,15,22,851.10
2020,06,18,15,23,855.10
2020,06,18,15,24,851.00
2020,06,18,15,25,843.80
2020,06,18,15,26,821.40
2020,06,18,15,27,806.20
2020,06,18,15,28,801.90
2020,06,18,15,29,803.50
2020,06,18,15,30,808.90
2020,06,18,15,31,811.50
2020,06,18,15,32,794.60
2020,06,18,15,33,804.00
2020,06,18,15,34,798.50
2020,06,18,15,35,794.40
2020,06,18,15,36,787.20
2020,06,18,15,37,776.80
2020,06,18,15,38,777.40
2020,06,18,15,39,757.00
2020,06,18,15,40,770.40
2020,06,18,15,41,790.30
2020,06,18,15,42,789.20
2020,06,18,15,43,787.00
2020,06,18,15,44,781.50
2020,06,18,15,45,776.00
2020,06,18,15,46,772.60
2020,06,18,15,47,772.00
2020,06,18,15,48,767.90
2020,06,18,15,49,766.00
2020,06,18,15,50,767.50
2020,06,18,15,51,765.00
2020,06,18,15,52,765.00
2020,06,18,15,53,763.90
2020,06,18,15,54,760.20
2020,06,18,15,55,759.00
2020,06,18,15,56,758.80
2020,06,18,15,57,757.40
2020,06,18,15,58,754.20
2020,06,18,15,59,751.50
2020,06,18,16,00,751.70
2020,06,18,16,01,751.30
2020,06,18,16,02,738.90
2020,06,18,16,03,741.90
2020,06,18,16,04,734.30
2020,06,18,16,05,731.00
2020,06,18,16,06,728.80
2020,06,18,16,07,728.10
2020,06,18,16,08,729.60
2020,06,18,16,09,732.30
2020,06,18,16,10,731.00
2020,06,18,16,11,731.00
2020,06,18,16,12,727.00
2020,06,18,16,13,718.80
2020,06,18,16,14,699.20
2020,06,18,16,15,665.20
2020,06,18,16,16,601.10
2020,06,18,16,17,551.00
2020,06,18,16,18,486.10
2020,06,18,16,19,505.50
2020,06,18,16,20,670.00
2020,06,18,16,21,648.70
2020,06,18,16,22,634.00
2020,06,18,16,23,668.00
2020,06,18,16,24,716.70
2020,06,18,16,25,691.70
2020,06,18,16,26,698.70
2020,06,18,16,27,697.00
2020,06,18,16,28,620.40
2020,06,18,16,29,634.20
2020,06,18,16,30,710.60
2020,06,18,16,31,706.80
2020,06,18,16,32,711.30
2020,06,18,16,33,673.20
2020,06,18,16,34,660.80
2020,06,18,16,35,658.50
2020,06,18,16,36,678.00
2020,06,18,16,37,684.50
2020,06,18,16,38,674.40
2020,06,18,16,39,664.50
2020,06,18,16,40,662.20
2020,06,18,16,41,658.00
2020,06,18,16,42,653.70
2020,06,18,16,43,648.50
2020,06,18,16,44,645.50
2020,06,18,16,45,640.50
2020,06,18,16,46,636.70
2020,06,18,16,47,633.50
2020,06,18,16,48,630.80
2020,06,18,16,49,628.00
2020,06,18,16,50,628.00
2020,06,18,16,51,629.60
2020,06,18,16,52,628.90
2020,06,18,16,53,624.60
2020,06,18,16,54,621.80
2020,06,18,16,55,622.50
2020,06,18,16,56,630.10
2020,06,18,16,57,628.80
2020,06,18,16,58,633.90
2020,06,18,16,59,635.80
2020,06,18,17,00,637.70
2020,06,18,17,01,636.00
2020,06,18,17,02,634.70
2020,06,18,17,03,637.20
2020,06,18,17,04,640.00
2020,06,18,17,05,640.00